Location:  
MeteoStar


Sort by weather type Sort by elevation Sort by visibility Sort from west to east north Sort from north to south Alphabetically Sort from strongest wind speed Sort from lowest to highest pressure Sort from highest to lowest dew point temperature Sort coolest temperatures to warmest Sort warm temperatures to coolest
 Metric

Current Observations for United Kingdom sorted by pressure

South Uist Range10:00ZRain58 5761002.9S 23 Gusting to 32 5832
Benbecula09:50ZRain57 5731003.1S 22 5719
Stornoway09:50ZLight Rain57 5541003.1S 19 5729
Aultbea10:00ZLight Showers61 53121004.9S 16 6136
Tiree09:50ZRain57 5521005.1SSE 23 5739
Loch Glascanoch10:00ZLight Rain59 52201005.7ESE 8 59869
Eglinton / Londonderr09:50ZLight Rain61 5761006.1SSW 14 Gusting to 24 6129
Kinloss09:50ZClear66 55181006.1SSW 12 6622
Tain Range10:00ZLight Showers64 56201006.7SSW 8 6413
Aviemore10:00ZLight Rain60 5471006.7SSW 8 Gusting to 20 60721
Castlederg10:00ZLight Rain59 5781006.9S 11 59167
Kirkwall Airport09:50ZClear61 5751007.1SSE 11 6168
Wick09:50ZClear61 57201007.1S 8 61127
Inverness / Dalcross09:50ZLight Rain61 57201007.1SSW 5 6129
Lossiemouth09:50ZMostly Cloudy68 55251007.1SSW 9 6842
Portglenone10:00ZRain59 5871008.0SSE 12 59209
Scatsa / Shetland Island09:50ZMist55 551.51008.1SE 22 5572
Tulloch Bridge10:00ZLight Rain58 54191008.2SSW 7 58777
Ballypatrick Forest10:00ZLight Rain58 5691008.2SSW 9 58511
Fair Isle10:00ZClear53 N/A101008.5ESE 8 187
Machrihanish10:00ZNot Avail.58 5661008.7SSE 12 5842
Lough Fea10:00ZRain57 561.751008.7S 11 57738
Belfast / Aldergrove Airport09:50ZLight Rain59 55121009.1S 9 59265
Sumburgh Cape 09:50ZFog55 540.51009.1SE 9 5516
Aberdeen / Dyce09:50ZClear64 57201009.1S 12 64213
Edinburgh Airport09:50ZClear64 59201009.1SW 9 64134
Dundee / Riverside09:50ZPartly Cloudy68 611.51009.1SW 10 6813
Leuchars09:50ZCloudy66 61201009.1SW 9 6639
Inverbervie10:00ZNot Avail.61 58121009.4SSW 12 61439
Glenanne10:00ZRain57 5551009.4SSW 11 57528
Strathallan10:00ZLight Showers62 55181009.5SW 8 62114
Lerwick10:00ZLight Drizzle54 54101009.7SSE 9 51269
Prestwick Rnas10:00ZLight Rain63 55121009.7S 11 6385
Drumalbin10:00ZNot Avail.61 56201009.9SSW 12 61803
Belfast / Harbour09:50ZLight Rain59 55121010.1S 10 5916
Glasgow Airport09:50ZLight Rain61 55201010.1SSW 8 6126
Prestwick Airport09:50ZLight Rain63 57201010.1S 11 6365
Baltasound10:00ZNot Avail.55 55101010.2SE 13 5549
Charterhall10:00ZNot Avail.65 58201010.2SW 9 65367
West Freugh10:00ZLight Rain60 5861010.7S 11 6036
Dundrennan10:00ZNot Avail.58 58181010.7S 13 58374
Spadeadam10:00ZNot Avail.64 54201011.0SW 16 Gusting to 25 64935
Redesdale10:00ZNot Avail.65 55141011SSW 10 65692
Isle Of Man / Ronaldsway Airport09:50ZLight Rain59 5751011.1SSW 8 5955
Newcastle 09:50ZNot Avail.68 5451011.1SSW 9 68265
Spadeadam09:50ZLight Showers64 5451011.1SW 16 641066
Boulmer09:50ZPartly Cloudy70 55201011.1S 11 7075
Eskdalemuir10:00ZRain/Drizzle60 5641011.2S 13 60793
Carlisle10:00ZNot Avail.67 55351011.4N 6791
Saint Bees Head10:00ZNot Avail.61 57141011.9S 16 61406
Keswick10:00ZLight Rain64 56201012S 3 64265
Warcop Range10:00ZNot Avail.64 55201012.0WSW 9 64744
Loftus Samos10:00ZNot Avail.71 57141012.0SSW 10 71190
Tees-Side09:50ZClear66 5551012.1S 11 66121
Leeming09:50ZMostly Cloudy70 55201012.1S 8 70131
Linton-On-Ouse09:50ZMostly Cloudy72 57121012.1SSW 9 7252
Topcliffe Royal Air Force Base 09:50ZMostly Cloudy72 55151012.1SSW 11 7291
Shap10:00ZNot Avail.63 56251012.2SSW 13 63816
Walney Island10:00ZNot Avail.66 58201012.5S 10 6649
Bingley10:00ZNot Avail.69 53301012.7SSW 9 69859
Leeds And Bradford09:50ZClear68 55201013.0S 8 68682
Bridlington Mrsc10:00ZNot Avail.68 57141013.0E 4 6849
Liverpool Airport 09:50ZClear68 57121013.1SW 10 6885
Blackpool Airport09:50ZClear68 57251013.1SW 13 6832
Humberside09:50ZClear72 55251013.1S 6 72101
Valley09:50ZMostly Cloudy63 57151013.1SSW 17 633
Coningsby Royal Air Force Base09:50ZMostly Cloudy75 5791013.1SSW 5 7522
Wittering09:50ZMostly Cloudy73 57201013.1SSW 6 73275
Leconfield09:50ZMostly Cloudy73 55121013.1SSW 6 7319
Waddington09:50ZMostly Cloudy73 55151013.1WSW 6 73223
Cranwell09:50ZMostly Cloudy75 55201013.1SW 8 75219
Crosby10:00ZNot Avail.67 56201013.2SSW 10 6726
Capel Curig10:00ZNot Avail.60 54141013.5SW 20 Gusting to 28 60708
Donna Nook10:00ZNot Avail.69 5891013.5E 7 6926
Lakenheath Royal Air Force Base09:56ZClear76 57201013.7WSW 6 7632
Wainfleet10:00ZNot Avail.71 61101013.7S 8 719
Nottingham Weather Centre10:00ZNot Avail.70 55111013.7WSW 6 70383
Lake Vyrnwy10:00ZNot Avail.60 54201013.9S 15 601181
Cranfield09:50ZClear73 5761014.0SW 7 73364
Cosford Royal Air Force Base09:50ZMostly Cloudy68 52121014.0W 8 68272
Weybourne10:00ZNot Avail.70 59201014.0NNE 4 7068
Church Lawford10:00ZNot Avail.71 56251014.0SW 4 71351
Bedford10:00ZNot Avail.73 58141014.0S 5 73278
Little Rissington10:00ZNot Avail.69 57201014.0SW 8 69705
Birmingham / Airport09:50ZClear72 5561014.1WSW 5 72324
Staverton Private 09:50ZNot Avail.70 5761014.1WSW 5 7095
Manchester Airport09:50ZClear66 5561014.1SSW 5 66226
Hawarden09:50ZClear68 55201014.1SSW 6 6832
East Midlands09:50ZClear70 5751014.1WSW 9 70308
Shawbury09:50ZCloudy66 55201014.1SW 11 66249
Cambridge09:50ZNot Avail.75 55251014.1WSW 9 7549
Norwich Weather Centre09:50ZNot Avail.72 59251014.1SSW 5 7245
Benson09:50ZMostly Cloudy72 57151014.1SSW 6 72206
Wattisham09:50ZNot Avail.75 52251014.1SW 10 75285
Fairford Royal Air Force Base09:50ZCloudy70 57251014.1WSW 5 70285
Brize Norton09:50ZCloudy70 57121014.1SW 4 70288
Northolt09:50ZMostly Cloudy73 54201014.1SSW 6 73124
Holbeach09:50ZNot Avail.72 61251014.1W 6 729
Marham09:50ZMostly Cloudy75 5791014.1SW 6 7575
Mildenhall Royal Air Force Base09:56ZClear75 5981014.2WSW 6 7532
Aberporth10:00ZNot Avail.64 54201014.5SW 10 64436
Aberdaron10:00ZNot Avail.60 58121014.5SSW 14 60311
Trawscoed10:00ZNot Avail.66 50251014.5SSW 5 66206
Shobdon10:00ZNot Avail.68 55201014.5WSW 6 68324
High Wicombe Hqstc10:00ZNot Avail.70 60171014.5SW 5 70669
Pershore10:00ZNot Avail.70 58201014.7WSW 5 70104
Milford Haven10:00ZNot Avail.67 58251014.7SW 7 67144
Biggin Hill 09:50ZNot Avail.68 54151014.9SSW 8 68600
Lyneham10:00ZNot Avail.68 59201015S 4 68475
Bristol / Lulsgate 09:50ZClear68 54121015.0WSW 8 68620
Luton Airport 09:50ZClear73 52121015.0SSW 7 73524
Sennybridge10:00ZNot Avail.61 57111015.0WSW 8 611007
Shoeburyness10:00ZNot Avail.71 53301015.0S 6 716
Larkhill10:00ZCloudy70 57121015SSW 5 70433
Kenley10:00ZNot Avail.68 50251015.0SSW 8 68557
Boscombe Down09:50ZMostly Cloudy68 57201015.1SSW 6 68406
Yeovilton09:50ZCloudy70 55121015.1WSW 3 7075
Cardiff-Wales Airport09:50ZMostly Cloudy68 57121015.1WNW 10 68219
Bournemouth Airport09:50ZClear70 55111015.1N 6 7036
Southampton / Weather Centre09:50ZClear68 54111015.1W 4 6829
Shoreham Airport09:50ZClear66 57151015.1S 7 666
London / Gatwick Airport09:50ZNot Avail.72 52151015.1S 5 72203
London City Airport09:50ZClear75 50151015.1N 6 7516
Farnborough09:50ZClear72 55351015.1SW 7 72213
London / Heathrow Airport09:50ZClear73 52251015.1SW 6 7378
Southend-On-Sea 09:50ZNot Avail.73 52251015.1SSW 7 7349
Pembrey Sands09:50ZPartly Cloudy66 59251015.1SSW 9 669
Stansted Airport09:50ZClear75 52251015.1S 8 75347
Exeter Airport09:50ZClear68 5761015.1N 2 6898
Odiham09:50ZMostly Cloudy70 55151015.1SW 7 70403
Middle Wallop09:50ZMostly Cloudy70 57121015.1WSW 5 70298
Manston10:00ZNot Avail.72 5881015.5SE 11 72180
Liscombe10:00ZNot Avail.64 56131015.5WSW 5 641141
Dunkeswell Aerodrome10:00ZNot Avail.66 55131015.5SW 5 66826
Herstmonceux10:00ZNot Avail.70 57171015.5S 4 70170
Chivenor10:00ZNot Avail.67 58201015.7W 6 6726
Cardinham10:00ZNot Avail.63 56131015.7SW 5 63656
Saint Catherines Point10:00ZNot Avail.65 57121015.7W 10 6552
Mumbles10:00ZNot Avail.66 60251016.0SW 11 66114
Langdon Bay10:00ZNot Avail.65 58251016SSW 4 65383
Culdrose09:50ZPartly Cloudy64 55201016.1SW 6 64255
Scilly; Saint MaryS09:50ZClear66 57201016.1WSW 9 66101
Alderney / Channel Island09:50ZClear63 55111016.1WSW 1 63232
Guernsey Airport09:50ZClear64 57151016.1W 6 64334
Jersey Airport09:50ZClear66 59151016.1W 6 66275
Lydd Airport 09:50ZNot Avail.70 57251016.1S 8 709
Plymouth10:00ZNot Avail.69 59131016.2SSW 6 69164
Camborne10:00ZCloudy63 56201016.2WNW 7 63285
Isle Of Portland10:00ZNot Avail.64 59121016.2SW 7 64173
Saint Helena Island09:50ZCloudy65 53251022ESE 15 651427

Atlantic
Tropical Watch